Time,TemperatureF,DewpointF,PressureIn,WindDirection,WindDirectionDegrees,WindSpeedMPH,WindSpeedGustMPH,Humidity,HourlyPrecipIn,Conditions,Clouds,dailyrainin,SoftwareType,DateUTC
2013-03-28 00:00:00,30.7,26.1,30.05,ENE,68,2.2,2.3,83,0.00,OVC,,0.00,WeatherDisplay:10.37,2013-03-28 06:00:00,
2013-03-28 00:05:00,30.7,26.1,30.06,ENE,68,2.1,2.7,83,0.00,OVC,,0.00,WeatherDisplay:10.37,2013-03-28 06:05:00,
2013-03-28 00:10:00,30.7,25.9,30.06,NE,45,2.7,4.6,82,0.00,OVC,,0.00,WeatherDisplay:10.37,2013-03-28 06:10:00,
2013-03-28 00:15:00,30.7,26.1,30.05,East,90,2.7,3.5,83,0.00,OVC,,0.00,WeatherDisplay:10.37,2013-03-28 06:15:00,
2013-03-28 00:20:00,30.6,26.1,30.05,ESE,112,0.0,1.1,83,0.00,OVC,,0.00,WeatherDisplay:10.37,2013-03-28 06:20:00,
2013-03-28 00:25:00,30.4,25.9,30.05,NE,45,0.0,0.0,83,0.00,OVC,,0.00,WeatherDisplay:10.37,2013-03-28 06:25:00,
2013-03-28 00:30:00,30.0,25.8,30.05,NE,45,0.0,0.0,84,0.00,OVC,,0.00,WeatherDisplay:10.37,2013-03-28 06:30:00,
2013-03-28 00:35:00,29.8,25.8,30.05,ENE,68,0.0,0.0,85,0.00,OVC,,0.00,WeatherDisplay:10.37,2013-03-28 06:35:00,
2013-03-28 00:40:00,29.8,25.8,30.05,East,90,0.0,0.0,85,0.00,OVC,,0.00,WeatherDisplay:10.37,2013-03-28 06:40:00,
2013-03-28 00:45:00,29.7,25.7,30.05,ESE,112,0.0,0.0,85,0.00,OVC,,0.00,WeatherDisplay:10.37,2013-03-28 06:45:00,
2013-03-28 00:50:00,29.7,25.7,30.05,NE,45,0.0,0.0,85,0.00,OVC,,0.00,WeatherDisplay:10.37,2013-03-28 06:50:00,
2013-03-28 00:55:00,29.7,25.7,30.06,East,90,0.0,0.0,85,0.00,OVC,,0.00,WeatherDisplay:10.37,2013-03-28 06:55:00,
2013-03-28 01:00:00,29.5,25.8,30.06,SE,135,0.0,0.0,86,0.00,OVC,,0.00,WeatherDisplay:10.37,2013-03-28 07:00:00,
2013-03-28 01:05:00,29.5,25.8,30.06,ESE,112,0.0,0.0,86,0.00,OVC,,0.00,WeatherDisplay:10.37,2013-03-28 07:05:00,
2013-03-28 01:10:00,29.7,26.0,30.06,SSE,158,2.9,3.5,86,0.00,OVC,,0.00,WeatherDisplay:10.37,2013-03-28 07:10:00,
2013-03-28 01:15:00,30.2,25.9,30.05,ESE,112,2.8,3.5,84,0.00,OVC,,0.00,WeatherDisplay:10.37,2013-03-28 07:15:00,
2013-03-28 01:20:00,30.4,26.1,30.05,NE,45,2.2,3.5,84,0.00,OVC,,0.00,WeatherDisplay:10.37,2013-03-28 07:20:00,
2013-03-28 01:25:00,30.4,26.1,30.05,NE,45,2.6,3.5,84,0.00,OVC,,0.00,WeatherDisplay:10.37,2013-03-28 07:25:00,
2013-03-28 01:30:00,30.0,25.8,30.05,ENE,68,2.2,2.7,84,0.00,OVC,,0.00,WeatherDisplay:10.37,2013-03-28 07:30:00,
2013-03-28 01:35:00,29.8,25.6,30.05,East,90,1.8,3.2,84,0.00,OVC,,0.00,WeatherDisplay:10.37,2013-03-28 07:35:00,
2013-03-28 01:40:00,29.8,25.6,30.05,NE,45,0.6,2.3,84,0.00,OVC,,0.00,WeatherDisplay:10.37,2013-03-28 07:40:00,
2013-03-28 01:45:00,30.0,25.8,30.05,ESE,112,0.0,0.0,84,0.00,OVC,,0.00,WeatherDisplay:10.37,2013-03-28 07:45:00,
2013-03-28 01:50:00,30.0,25.8,30.05,East,90,2.6,3.5,84,0.00,OVC,,0.00,WeatherDisplay:10.37,2013-03-28 07:50:00,
2013-03-28 01:55:00,29.8,25.6,30.05,East,90,2.7,3.5,84,0.00,OVC,,0.00,WeatherDisplay:10.37,2013-03-28 07:55:00,
2013-03-28 02:00:00,29.8,25.8,30.05,East,90,2.0,2.3,85,0.00,OVC,,0.00,WeatherDisplay:10.37,2013-03-28 08:00:00,
2013-03-28 02:05:00,29.5,25.5,30.05,NE,45,2.4,3.2,85,0.00,OVC,,0.00,WeatherDisplay:10.37,2013-03-28 08:05:00,
2013-03-28 02:10:00,29.5,25.5,30.05,ESE,112,0.0,1.1,85,0.00,OVC,,0.00,WeatherDisplay:10.37,2013-03-28 08:10:00,
2013-03-28 02:15:00,29.5,25.8,30.05,SSW,202,0.0,0.0,86,0.00,OVC,,0.00,WeatherDisplay:10.37,2013-03-28 08:15:00,
2013-03-28 02:20:00,29.5,25.8,30.05,ESE,112,0.0,0.0,86,0.00,OVC,,0.00,WeatherDisplay:10.37,2013-03-28 08:20:00,
2013-03-28 02:25:00,29.5,25.8,30.05,SE,135,1.3,1.7,86,0.00,OVC,,0.00,WeatherDisplay:10.37,2013-03-28 08:25:00,
2013-03-28 02:30:00,29.5,25.8,30.05,ENE,68,0.3,1.1,86,0.00,OVC,,0.00,WeatherDisplay:10.37,2013-03-28 08:30:00,
2013-03-28 02:35:00,29.5,25.8,30.05,NE,45,0.0,0.0,86,0.00,OVC,,0.00,WeatherDisplay:10.37,2013-03-28 08:35:00,
2013-03-28 02:40:00,29.5,25.8,30.05,ESE,112,0.0,0.0,86,0.00,OVC,,0.00,WeatherDisplay:10.37,2013-03-28 08:40:00,
2013-03-28 02:45:00,29.5,25.8,30.05,NNE,22,0.0,0.0,86,0.00,OVC,,0.00,WeatherDisplay:10.37,2013-03-28 08:45:00,
2013-03-28 02:50:00,29.5,25.8,30.05,ESE,112,0.0,0.0,86,0.00,OVC,,0.00,WeatherDisplay:10.37,2013-03-28 08:50:00,
2013-03-28 02:55:00,29.5,25.8,30.05,NNW,338,0.0,0.0,86,0.00,OVC,,0.00,WeatherDisplay:10.37,2013-03-28 08:55:00,
2013-03-28 03:00:00,29.5,25.8,30.05,SE,135,0.0,1.1,86,0.00,OVC,,0.00,WeatherDisplay:10.37,2013-03-28 09:00:00,
2013-03-28 03:06:00,29.3,25.6,30.05,SE,135,1.6,2.3,86,0.00,OVC,,0.00,WeatherDisplay:10.37,2013-03-28 09:06:00,
2013-03-28 03:11:00,29.3,25.6,30.05,NE,45,0.0,0.0,86,0.00,OVC,,0.00,WeatherDisplay:10.37,2013-03-28 09:11:00,
2013-03-28 03:16:00,29.3,25.6,30.05,NE,45,0.0,0.0,86,0.00,OVC,,0.00,WeatherDisplay:10.37,2013-03-28 09:16:00,
2013-03-28 03:21:00,29.3,25.9,30.05,SE,135,0.0,0.0,87,0.00,OVC,,0.00,WeatherDisplay:10.37,2013-03-28 09:21:00,
2013-03-28 03:26:00,28.9,25.5,30.05,ESE,112,0.0,0.0,87,0.00,OVC,,0.00,WeatherDisplay:10.37,2013-03-28 09:26:00,
2013-03-28 03:31:00,28.8,25.7,30.04,ESE,112,2.6,3.5,88,0.00,OVC,,0.00,WeatherDisplay:10.37,2013-03-28 09:31:00,
2013-03-28 03:36:00,28.6,25.5,30.04,ENE,68,1.1,3.5,88,0.00,OVC,,0.00,WeatherDisplay:10.37,2013-03-28 09:36:00,
2013-03-28 03:41:00,28.9,26.3,30.03,NE,45,3.4,3.5,90,0.00,OVC,,0.00,WeatherDisplay:10.37,2013-03-28 09:41:00,
2013-03-28 03:46:00,28.6,25.8,30.03,East,90,2.7,3.5,89,0.00,OVC,,0.00,WeatherDisplay:10.37,2013-03-28 09:46:00,
2013-03-28 03:51:00,28.4,25.6,30.03,NNE,22,2.3,2.3,89,0.00,OVC,,0.00,WeatherDisplay:10.37,2013-03-28 09:51:00,
2013-03-28 03:56:00,28.4,25.6,30.03,ESE,112,0.1,1.1,89,0.00,OVC,,0.00,WeatherDisplay:10.37,2013-03-28 09:56:00,
2013-03-28 04:01:00,28.2,25.4,30.03,NW,315,0.0,0.0,89,0.00,OVC,,0.00,WeatherDisplay:10.37,2013-03-28 10:01:00,
2013-03-28 04:06:00,28.2,25.4,30.03,North,360,0.0,0.0,89,0.00,FEW,,0.00,WeatherDisplay:10.37,2013-03-28 10:06:00,
2013-03-28 04:11:00,28.0,25.2,30.03,NW,315,0.0,0.0,89,0.00,FEW,,0.00,WeatherDisplay:10.37,2013-03-28 10:11:00,
2013-03-28 04:16:00,27.7,24.9,30.03,ESE,112,0.0,0.0,89,0.00,FEW,,0.00,WeatherDisplay:10.37,2013-03-28 10:16:00,
2013-03-28 04:21:00,27.5,25.0,30.03,NE,45,0.0,0.0,90,0.00,FEW,,0.00,WeatherDisplay:10.37,2013-03-28 10:21:00,
2013-03-28 04:26:00,27.3,24.8,30.03,ENE,68,0.0,0.0,90,0.00,FEW,,0.00,WeatherDisplay:10.37,2013-03-28 10:26:00,
2013-03-28 04:31:00,27.1,24.8,30.03,ESE,112,0.0,0.0,91,0.00,FEW,,0.00,WeatherDisplay:10.37,2013-03-28 10:31:00,
2013-03-28 04:36:00,27.1,24.8,30.03,NNE,22,0.0,0.0,91,0.00,FEW,,0.00,WeatherDisplay:10.37,2013-03-28 10:36:00,
2013-03-28 04:42:00,27.0,24.7,30.03,NE,45,0.0,0.0,91,0.00,FEW,,0.00,WeatherDisplay:10.37,2013-03-28 10:42:00,
2013-03-28 04:47:00,26.8,24.5,30.03,WNW,292,0.0,0.0,91,0.00,FEW,,0.00,WeatherDisplay:10.37,2013-03-28 10:47:00,
2013-03-28 04:52:00,26.6,24.3,30.03,WNW,292,0.0,0.0,91,0.00,FEW,,0.00,WeatherDisplay:10.37,2013-03-28 10:52:00,
2013-03-28 04:57:00,26.2,23.9,30.03,NNE,22,0.0,0.0,91,0.00,FEW,,0.00,WeatherDisplay:10.37,2013-03-28 10:57:00,
2013-03-28 05:02:00,26.1,23.8,30.03,East,90,0.0,0.0,91,0.00,FEW,,0.00,WeatherDisplay:10.37,2013-03-28 11:02:00,
2013-03-28 05:07:00,25.9,23.9,30.03,ENE,68,0.0,0.0,92,0.00,FEW,,0.00,WeatherDisplay:10.37,2013-03-28 11:07:00,
2013-03-28 05:12:00,25.9,23.9,30.03,WNW,292,0.0,0.0,92,0.00,CLR,,0.00,WeatherDisplay:10.37,2013-03-28 11:12:00,
2013-03-28 05:17:00,25.9,23.9,30.03,WNW,292,0.0,0.0,92,0.00,CLR,,0.00,WeatherDisplay:10.37,2013-03-28 11:17:00,
2013-03-28 05:22:00,25.7,23.7,30.03,NNE,22,0.0,0.0,92,0.00,CLR,,0.00,WeatherDisplay:10.37,2013-03-28 11:22:00,
2013-03-28 05:27:00,25.5,23.5,30.03,ESE,112,0.0,0.0,92,0.00,CLR,,0.00,WeatherDisplay:10.37,2013-03-28 11:27:00,
2013-03-28 05:32:00,25.2,23.5,30.03,East,90,0.0,0.0,93,0.00,CLR,,0.00,WeatherDisplay:10.37,2013-03-28 11:32:00,
2013-03-28 05:37:00,25.5,24.0,30.03,ENE,68,0.0,0.0,94,0.00,CLR,,0.00,WeatherDisplay:10.37,2013-03-28 11:37:00,
2013-03-28 05:42:00,25.2,23.7,30.04,ENE,68,0.0,0.0,94,0.00,CLR,,0.00,WeatherDisplay:10.37,2013-03-28 11:42:00,
2013-03-28 05:47:00,25.9,24.4,30.04,NE,45,0.0,0.0,94,0.00,CLR,,0.00,WeatherDisplay:10.37,2013-03-28 11:47:00,
2013-03-28 05:52:00,25.7,24.0,30.04,NNE,22,0.0,0.0,93,0.00,CLR,,0.00,WeatherDisplay:10.37,2013-03-28 11:52:00,
2013-03-28 05:57:00,25.7,24.0,30.04,ENE,68,0.0,0.0,93,0.00,CLR,,0.00,WeatherDisplay:10.37,2013-03-28 11:57:00,
2013-03-28 06:02:00,25.5,23.8,30.04,SE,135,0.0,0.0,93,0.00,CLR,,0.00,WeatherDisplay:10.37,2013-03-28 12:02:00,
2013-03-28 06:07:00,25.5,23.8,30.04,ENE,68,0.0,0.0,93,0.00,CLR,,0.00,WeatherDisplay:10.37,2013-03-28 12:07:00,
2013-03-28 06:12:00,25.3,23.6,30.04,ESE,112,0.0,0.0,93,0.00,BKN,,0.00,WeatherDisplay:10.37,2013-03-28 12:12:00,
2013-03-28 06:17:00,25.3,23.6,30.04,ESE,112,0.0,0.0,93,0.00,BKN,,0.00,WeatherDisplay:10.37,2013-03-28 12:17:00,
2013-03-28 06:22:00,25.5,23.8,30.04,NNE,22,0.0,0.0,93,0.00,BKN,,0.00,WeatherDisplay:10.37,2013-03-28 12:22:00,
2013-03-28 06:27:00,25.5,23.8,30.05,NNE,22,0.0,0.0,93,0.00,BKN,,0.00,WeatherDisplay:10.37,2013-03-28 12:27:00,
2013-03-28 06:32:00,25.3,23.6,30.05,East,90,0.6,2.2,93,0.00,BKN,,0.00,WeatherDisplay:10.37,2013-03-28 12:32:00,
2013-03-28 06:37:00,25.3,23.6,30.05,ENE,68,0.3,1.1,93,0.00,BKN,,0.00,WeatherDisplay:10.37,2013-03-28 12:37:00,
2013-03-28 06:42:00,25.3,23.6,30.05,East,90,0.0,1.1,93,0.00,BKN,,0.00,WeatherDisplay:10.37,2013-03-28 12:42:00,
2013-03-28 06:48:00,25.3,23.6,30.05,ENE,68,1.7,1.7,93,0.00,BKN,,0.00,WeatherDisplay:10.37,2013-03-28 12:48:00,
2013-03-28 06:53:00,25.5,23.8,30.05,ENE,68,0.0,0.0,93,0.00,BKN,,0.00,WeatherDisplay:10.37,2013-03-28 12:53:00,
2013-03-28 06:58:00,25.5,23.8,30.05,ESE,112,0.0,0.0,93,0.00,BKN,,0.00,WeatherDisplay:10.37,2013-03-28 12:58:00,
2013-03-28 07:03:00,25.5,23.8,30.05,East,90,0.0,0.0,93,0.00,BKN,,0.00,WeatherDisplay:10.37,2013-03-28 13:03:00,
2013-03-28 07:08:00,25.5,23.8,30.05,ENE,68,0.0,0.0,93,0.00,BKN,,0.00,WeatherDisplay:10.37,2013-03-28 13:08:00,
2013-03-28 07:13:00,25.5,23.5,30.05,WNW,292,0.0,0.0,92,0.00,BKN,,0.00,WeatherDisplay:10.37,2013-03-28 13:13:00,
2013-03-28 07:18:00,25.9,23.9,30.05,East,90,0.0,0.0,92,0.00,BKN,,0.00,WeatherDisplay:10.37,2013-03-28 13:18:00,
2013-03-28 07:23:00,26.6,24.6,30.05,East,90,0.0,0.0,92,0.00,BKN,,0.00,WeatherDisplay:10.37,2013-03-28 13:23:00,
2013-03-28 07:28:00,27.9,25.3,30.05,ENE,68,0.0,0.0,90,0.00,BKN,,0.00,WeatherDisplay:10.37,2013-03-28 13:28:00,
2013-03-28 07:33:00,28.9,26.3,30.05,ENE,68,0.0,0.0,90,0.00,BKN,,0.00,WeatherDisplay:10.37,2013-03-28 13:33:00,
2013-03-28 07:38:00,30.4,25.6,30.05,ENE,68,0.0,0.0,82,0.00,BKN,,0.00,WeatherDisplay:10.37,2013-03-28 13:38:00,
2013-03-28 07:43:00,30.7,26.1,30.06,ENE,68,2.2,3.5,83,0.00,BKN,,0.00,WeatherDisplay:10.37,2013-03-28 13:43:00,
2013-03-28 07:48:00,30.4,25.9,30.06,ESE,112,2.7,2.7,83,0.00,BKN,,0.00,WeatherDisplay:10.37,2013-03-28 13:48:00,
2013-03-28 07:53:00,29.8,25.6,30.06,ESE,112,2.7,2.7,84,0.00,BKN,,0.00,WeatherDisplay:10.37,2013-03-28 13:53:00,
2013-03-28 07:58:00,29.5,25.5,30.06,East,90,1.8,3.5,85,0.00,BKN,,0.00,WeatherDisplay:10.37,2013-03-28 13:58:00,
2013-03-28 08:03:00,30.2,25.9,30.06,ENE,68,2.9,3.7,84,0.00,BKN,,0.00,WeatherDisplay:10.37,2013-03-28 14:03:00,
2013-03-28 08:08:00,30.7,26.1,30.06,NE,45,1.5,1.7,83,0.00,BKN,,0.00,WeatherDisplay:10.37,2013-03-28 14:08:00,
2013-03-28 08:13:00,30.7,26.1,30.06,ESE,112,1.8,3.5,83,0.00,FEW,,0.00,WeatherDisplay:10.37,2013-03-28 14:13:00,
2013-03-28 08:18:00,30.7,26.1,30.07,East,90,2.4,2.7,83,0.00,FEW,,0.00,WeatherDisplay:10.37,2013-03-28 14:18:00,
2013-03-28 08:23:00,31.1,26.5,30.07,ENE,68,0.7,1.1,83,0.00,FEW,,0.00,WeatherDisplay:10.37,2013-03-28 14:23:00,
2013-03-28 08:28:00,31.6,27.0,30.06,ENE,68,1.7,2.3,83,0.00,FEW,,0.00,WeatherDisplay:10.37,2013-03-28 14:28:00,
2013-03-28 08:33:00,31.5,26.9,30.06,ESE,112,3.4,4.6,83,0.00,FEW,,0.00,WeatherDisplay:10.37,2013-03-28 14:33:00,
2013-03-28 08:38:00,32.4,27.5,30.06,ESE,112,1.4,2.3,82,0.00,FEW,,0.00,WeatherDisplay:10.37,2013-03-28 14:38:00,
2013-03-28 08:43:00,33.6,27.8,30.06,East,90,3.0,3.5,79,0.00,FEW,,0.00,WeatherDisplay:10.37,2013-03-28 14:43:00,
2013-03-28 08:48:00,33.4,27.6,30.06,ESE,112,2.5,2.7,79,0.00,FEW,,0.00,WeatherDisplay:10.37,2013-03-28 14:48:00,
2013-03-28 08:53:00,32.9,27.4,30.06,ENE,68,1.6,2.3,80,0.00,FEW,,0.00,WeatherDisplay:10.37,2013-03-28 14:53:00,
2013-03-28 08:58:00,33.8,28.3,30.06,NE,45,2.4,3.5,80,0.00,FEW,,0.00,WeatherDisplay:10.37,2013-03-28 14:58:00,
2013-03-28 09:03:00,34.5,28.3,30.06,ESE,112,3.9,4.6,78,0.00,CLR,,0.00,WeatherDisplay:10.37,2013-03-28 15:03:00,
2013-03-28 09:08:00,34.3,28.2,30.06,ENE,68,3.9,4.6,78,0.00,CLR,,0.00,WeatherDisplay:10.37,2013-03-28 15:08:00,
2013-03-28 09:13:00,34.7,28.9,30.06,ESE,112,4.2,5.8,79,0.00,CLR,,0.00,WeatherDisplay:10.37,2013-03-28 15:13:00,
2013-03-28 09:18:00,36.3,29.1,30.06,East,90,3.3,4.6,75,0.00,CLR,,0.00,WeatherDisplay:10.37,2013-03-28 15:18:00,
2013-03-28 09:23:00,36.7,29.2,30.06,ENE,68,4.0,4.7,74,0.00,CLR,,0.00,WeatherDisplay:10.37,2013-03-28 15:23:00,
2013-03-28 09:28:00,37.4,29.5,30.06,East,90,3.4,4.6,73,0.00,CLR,,0.00,WeatherDisplay:10.37,2013-03-28 15:28:00,
2013-03-28 09:33:00,37.6,29.4,30.06,East,90,4.2,5.8,72,0.00,CLR,,0.00,WeatherDisplay:10.37,2013-03-28 15:33:00,
2013-03-28 09:38:00,36.9,28.7,30.06,South,180,4.4,4.6,72,0.00,CLR,,0.00,WeatherDisplay:10.37,2013-03-28 15:38:00,
2013-03-28 09:43:00,37.0,28.8,30.07,SSE,158,3.3,5.8,72,0.00,CLR,,0.00,WeatherDisplay:10.37,2013-03-28 15:43:00,
2013-03-28 09:48:00,37.6,29.7,30.07,East,90,3.8,4.7,73,0.00,CLR,,0.00,WeatherDisplay:10.37,2013-03-28 15:48:00,
2013-03-28 09:53:00,37.6,29.0,30.07,SSE,158,3.0,4.6,71,0.00,CLR,,0.00,WeatherDisplay:10.37,2013-03-28 15:53:00,
2013-03-28 09:58:00,38.3,29.7,30.07,SE,135,3.3,4.6,71,0.00,CLR,,0.00,WeatherDisplay:10.37,2013-03-28 15:58:00,
2013-03-28 10:03:00,39.0,29.7,30.07,NE,45,3.6,4.7,69,0.00,CLR,,0.00,WeatherDisplay:10.37,2013-03-28 16:03:00,
2013-03-28 10:08:00,38.7,29.0,30.07,NE,45,2.6,3.5,68,0.00,CLR,,0.00,WeatherDisplay:10.37,2013-03-28 16:08:00,
2013-03-28 10:13:00,39.4,29.3,30.07,ESE,112,3.6,3.7,67,0.00,CLR,,0.00,WeatherDisplay:10.37,2013-03-28 16:13:00,
2013-03-28 10:18:00,40.1,30.0,30.07,SE,135,3.3,4.7,67,0.00,CLR,,0.00,WeatherDisplay:10.37,2013-03-28 16:18:00,
2013-03-28 10:23:00,40.5,30.0,30.07,SSE,158,3.5,4.6,66,0.00,CLR,,0.00,WeatherDisplay:10.37,2013-03-28 16:23:00,
2013-03-28 10:28:00,40.6,29.7,30.07,SE,135,4.3,5.8,65,0.00,CLR,,0.00,WeatherDisplay:10.37,2013-03-28 16:28:00,
2013-03-28 10:33:00,41.0,29.4,30.07,ESE,112,4.7,4.7,63,0.00,CLR,,0.00,WeatherDisplay:10.37,2013-03-28 16:33:00,
2013-03-28 10:38:00,43.7,30.3,30.07,ESE,112,4.4,5.8,59,0.00,CLR,,0.00,WeatherDisplay:10.37,2013-03-28 16:38:00,
2013-03-28 10:43:00,41.9,29.8,30.07,East,90,4.1,4.7,62,0.00,CLR,,0.00,WeatherDisplay:10.37,2013-03-28 16:43:00,
2013-03-28 10:48:00,41.4,29.3,30.07,ENE,68,3.8,5.8,62,0.00,CLR,,0.00,WeatherDisplay:10.37,2013-03-28 16:48:00,
2013-03-28 10:53:00,41.0,29.4,30.08,ESE,112,3.3,4.6,63,0.00,CLR,,0.00,WeatherDisplay:10.37,2013-03-28 16:53:00,
2013-03-28 10:58:00,42.4,31.1,30.08,East,90,4.0,4.6,64,0.00,CLR,,0.00,WeatherDisplay:10.37,2013-03-28 16:58:00,
2013-03-28 11:03:00,42.3,30.6,30.08,NNE,22,3.7,5.8,63,0.00,CLR,,0.00,WeatherDisplay:10.37,2013-03-28 17:03:00,
2013-03-28 11:09:00,43.9,31.7,30.07,ENE,68,4.0,5.8,62,0.00,CLR,,0.00,WeatherDisplay:10.37,2013-03-28 17:09:00,
2013-03-28 11:13:00,43.3,31.5,30.07,East,90,5.6,5.8,63,0.00,CLR,,0.00,WeatherDisplay:10.37,2013-03-28 17:13:00,
2013-03-28 11:19:00,42.3,31.4,30.07,East,90,4.9,8.1,65,0.00,CLR,,0.00,WeatherDisplay:10.37,2013-03-28 17:19:00,
2013-03-28 11:24:00,44.2,31.6,30.07,NNE,22,4.2,5.8,61,0.00,CLR,,0.00,WeatherDisplay:10.37,2013-03-28 17:24:00,
2013-03-28 11:29:00,43.9,32.1,30.08,ESE,112,3.1,5.8,63,0.00,CLR,,0.00,WeatherDisplay:10.37,2013-03-28 17:29:00,
2013-03-28 11:34:00,44.4,32.6,30.08,ESE,112,3.4,4.6,63,0.00,CLR,,0.00,WeatherDisplay:10.37,2013-03-28 17:34:00,
2013-03-28 11:39:00,44.6,32.0,30.08,SSE,158,3.3,4.2,61,0.00,CLR,,0.00,WeatherDisplay:10.37,2013-03-28 17:39:00,
2013-03-28 11:44:00,44.8,32.2,30.08,East,90,4.5,4.6,61,0.00,CLR,,0.00,WeatherDisplay:10.37,2013-03-28 17:44:00,
2013-03-28 11:49:00,44.8,32.6,30.08,ESE,112,5.4,6.9,62,0.00,CLR,,0.00,WeatherDisplay:10.37,2013-03-28 17:49:00,
2013-03-28 11:54:00,44.8,32.6,30.07,ESE,112,6.8,6.9,62,0.00,CLR,,0.00,WeatherDisplay:10.37,2013-03-28 17:54:00,
2013-03-28 11:59:00,45.9,33.2,30.07,SE,135,4.4,6.9,61,0.00,CLR,,0.00,WeatherDisplay:10.37,2013-03-28 17:59:00,
2013-03-28 12:04:00,46.4,33.3,30.07,East,90,2.2,6.9,60,0.00,CLR,,0.00,WeatherDisplay:10.37,2013-03-28 18:04:00,
2013-03-28 12:09:00,46.6,33.4,30.07,ENE,68,4.4,5.8,60,0.00,CLR,,0.00,WeatherDisplay:10.37,2013-03-28 18:09:00,
2013-03-28 12:14:00,46.9,33.3,30.07,East,90,4.6,5.8,59,0.00,CLR,,0.00,WeatherDisplay:10.37,2013-03-28 18:14:00,
2013-03-28 12:19:00,48.0,33.5,30.07,NNW,338,4.1,5.8,57,0.00,CLR,,0.00,WeatherDisplay:10.37,2013-03-28 18:19:00,
2013-03-28 12:24:00,47.7,33.6,30.07,ESE,112,3.8,4.6,58,0.00,CLR,,0.00,WeatherDisplay:10.37,2013-03-28 18:24:00,
2013-03-28 12:29:00,48.0,33.5,30.07,ESE,112,5.1,5.8,57,0.00,CLR,,0.00,WeatherDisplay:10.37,2013-03-28 18:29:00,
2013-03-28 12:34:00,48.7,33.7,30.07,East,90,3.1,4.6,56,0.00,CLR,,0.00,WeatherDisplay:10.37,2013-03-28 18:34:00,
2013-03-28 12:39:00,48.6,32.7,30.07,ESE,112,5.3,6.8,54,0.00,CLR,,0.00,WeatherDisplay:10.37,2013-03-28 18:39:00,
2013-03-28 12:44:00,47.7,32.8,30.07,ESE,112,4.2,4.6,56,0.00,CLR,,0.00,WeatherDisplay:10.37,2013-03-28 18:44:00,
2013-03-28 12:49:00,47.8,32.9,30.07,East,90,3.3,4.7,56,0.00,CLR,,0.00,WeatherDisplay:10.37,2013-03-28 18:49:00,
2013-03-28 12:54:00,48.4,33.0,30.07,ESE,112,3.2,3.5,55,0.00,CLR,,0.00,WeatherDisplay:10.37,2013-03-28 18:54:00,
2013-03-28 12:59:00,48.9,33.4,30.07,East,90,3.1,4.6,55,0.00,CLR,,0.00,WeatherDisplay:10.37,2013-03-28 18:59:00,
2013-03-28 13:04:00,49.8,33.8,30.07,ENE,68,3.2,4.6,54,0.00,CLR,,0.00,WeatherDisplay:10.37,2013-03-28 19:04:00,
2013-03-28 13:09:00,50.0,33.5,30.07,East,90,4.4,5.8,53,0.00,CLR,,0.00,WeatherDisplay:10.37,2013-03-28 19:09:00,
2013-03-28 13:14:00,50.7,34.2,30.07,South,180,4.7,5.3,53,0.00,CLR,,0.00,WeatherDisplay:10.37,2013-03-28 19:14:00,
2013-03-28 13:19:00,50.5,34.0,30.06,ESE,112,3.8,4.2,53,0.00,CLR,,0.00,WeatherDisplay:10.37,2013-03-28 19:19:00,
2013-03-28 13:24:00,51.3,34.3,30.06,ESE,112,4.6,4.6,52,0.00,CLR,,0.00,WeatherDisplay:10.37,2013-03-28 19:24:00,
2013-03-28 13:29:00,50.5,33.5,30.06,ESE,112,4.6,5.8,52,0.00,CLR,,0.00,WeatherDisplay:10.37,2013-03-28 19:29:00,
2013-03-28 13:34:00,51.3,33.3,30.06,ESE,112,5.0,5.8,50,0.00,CLR,,0.00,WeatherDisplay:10.37,2013-03-28 19:34:00,
2013-03-28 13:39:00,50.5,33.5,30.06,SSE,158,4.2,6.9,52,0.00,CLR,,0.00,WeatherDisplay:10.37,2013-03-28 19:39:00,
2013-03-28 13:44:00,51.4,35.3,30.06,SE,135,3.4,5.8,54,0.00,CLR,,0.00,WeatherDisplay:10.37,2013-03-28 19:44:00,
2013-03-28 13:49:00,52.0,35.4,30.06,ESE,112,4.4,6.3,53,0.00,CLR,,0.00,WeatherDisplay:10.37,2013-03-28 19:49:00,
2013-03-28 13:54:00,52.9,35.2,30.05,ESE,112,3.4,5.8,51,0.00,CLR,,0.00,WeatherDisplay:10.37,2013-03-28 19:54:00,
2013-03-28 13:59:00,51.6,33.6,30.05,ENE,68,4.2,5.8,50,0.00,CLR,,0.00,WeatherDisplay:10.37,2013-03-28 19:59:00,
2013-03-28 14:04:00,51.8,34.2,30.05,East,90,5.4,6.3,51,0.00,CLR,,0.00,WeatherDisplay:10.37,2013-03-28 20:04:00,
2013-03-28 14:09:00,52.0,34.9,30.05,SE,135,4.6,5.8,52,0.00,CLR,,0.00,WeatherDisplay:10.37,2013-03-28 20:09:00,
2013-03-28 14:14:00,52.5,34.9,30.05,East,90,4.8,5.8,51,0.00,CLR,,0.00,WeatherDisplay:10.37,2013-03-28 20:14:00,
2013-03-28 14:19:00,52.9,34.8,30.05,ESE,112,6.1,6.8,50,0.00,CLR,,0.00,WeatherDisplay:10.37,2013-03-28 20:19:00,
2013-03-28 14:24:00,52.9,34.8,30.05,ESE,112,4.2,4.7,50,0.00,CLR,,0.00,WeatherDisplay:10.37,2013-03-28 20:24:00,
2013-03-28 14:29:00,52.7,34.6,30.05,ESE,112,1.9,3.7,50,0.00,CLR,,0.00,WeatherDisplay:10.37,2013-03-28 20:29:00,
2013-03-28 14:34:00,54.0,35.3,30.05,ESE,112,3.2,4.7,49,0.00,CLR,,0.00,WeatherDisplay:10.37,2013-03-28 20:34:00,
2013-03-28 14:39:00,53.1,34.4,30.05,East,90,3.2,3.7,49,0.00,CLR,,0.00,WeatherDisplay:10.37,2013-03-28 20:39:00,
2013-03-28 14:44:00,52.0,34.4,30.05,ENE,68,4.5,5.8,51,0.00,CLR,,0.00,WeatherDisplay:10.37,2013-03-28 20:44:00,
2013-03-28 14:49:00,52.5,34.4,30.05,ESE,112,6.1,8.1,50,0.00,CLR,,0.00,WeatherDisplay:10.37,2013-03-28 20:49:00,
2013-03-28 14:54:00,53.4,35.2,30.05,ENE,68,5.5,6.9,50,0.00,CLR,,0.00,WeatherDisplay:10.37,2013-03-28 20:54:00,
2013-03-28 14:59:00,54.9,35.6,30.05,SE,135,5.5,6.8,48,0.00,CLR,,0.00,WeatherDisplay:10.37,2013-03-28 20:59:00,
2013-03-28 15:04:00,54.3,35.0,30.04,ENE,68,2.2,4.6,48,0.00,CLR,,0.00,WeatherDisplay:10.37,2013-03-28 21:04:00,
2013-03-28 15:09:00,52.9,33.7,30.04,ESE,112,4.2,5.8,48,0.00,CLR,,0.00,WeatherDisplay:10.37,2013-03-28 21:09:00,
2013-03-28 15:14:00,53.8,34.0,30.04,ENE,68,3.7,5.3,47,0.00,CLR,,0.00,WeatherDisplay:10.37,2013-03-28 21:14:00,
2013-03-28 15:19:00,52.9,33.7,30.04,East,90,4.3,6.9,48,0.00,CLR,,0.00,WeatherDisplay:10.37,2013-03-28 21:19:00,
2013-03-28 15:24:00,54.9,34.5,30.04,ESE,112,4.4,5.8,46,0.00,CLR,,0.00,WeatherDisplay:10.37,2013-03-28 21:24:00,
2013-03-28 15:29:00,53.6,33.3,30.04,ESE,112,4.3,4.6,46,0.00,CLR,,0.00,WeatherDisplay:10.37,2013-03-28 21:29:00,
2013-03-28 15:34:00,53.6,32.8,30.04,SE,135,3.8,5.8,45,0.00,CLR,,0.00,WeatherDisplay:10.37,2013-03-28 21:34:00,
2013-03-28 15:39:00,54.5,34.1,30.04,ESE,112,1.0,4.7,46,0.00,CLR,,0.00,WeatherDisplay:10.37,2013-03-28 21:39:00,
2013-03-28 15:44:00,53.1,33.4,30.04,SE,135,5.0,6.9,47,0.00,CLR,,0.00,WeatherDisplay:10.37,2013-03-28 21:44:00,
2013-03-28 15:49:00,54.3,33.4,30.04,ENE,68,3.4,3.7,45,0.00,CLR,,0.00,WeatherDisplay:10.37,2013-03-28 21:49:00,
2013-03-28 15:54:00,54.1,32.1,30.04,ESE,112,4.4,5.8,43,0.00,CLR,,0.00,WeatherDisplay:10.37,2013-03-28 21:54:00,
2013-03-28 15:59:00,55.6,32.8,30.04,ESE,112,2.5,4.7,42,0.00,CLR,,0.00,WeatherDisplay:10.37,2013-03-28 21:59:00,
2013-03-28 16:04:00,54.0,32.0,30.04,ESE,112,4.4,5.8,43,0.00,CLR,,0.00,WeatherDisplay:10.37,2013-03-28 22:04:00,
2013-03-28 16:09:00,54.1,31.5,30.04,ESE,112,3.2,5.8,42,0.00,CLR,,0.00,WeatherDisplay:10.37,2013-03-28 22:09:00,
2013-03-28 16:14:00,54.3,32.8,30.04,ESE,112,2.7,4.6,44,0.00,CLR,,0.00,WeatherDisplay:10.37,2013-03-28 22:14:00,
2013-03-28 16:19:00,53.8,32.4,30.04,NE,45,3.7,5.8,44,0.00,CLR,,0.00,WeatherDisplay:10.37,2013-03-28 22:19:00,
2013-03-28 16:24:00,54.1,33.2,30.04,ESE,112,2.6,4.6,45,0.00,CLR,,0.00,WeatherDisplay:10.37,2013-03-28 22:24:00,
2013-03-28 16:30:00,54.3,33.4,30.04,ENE,68,3.0,3.2,45,0.00,CLR,,0.00,WeatherDisplay:10.37,2013-03-28 22:30:00,
2013-03-28 16:35:00,54.5,33.0,30.04,East,90,3.0,5.8,44,0.00,CLR,,0.00,WeatherDisplay:10.37,2013-03-28 22:35:00,
2013-03-28 16:40:00,54.0,33.1,30.04,ESE,112,2.8,4.2,45,0.00,CLR,,0.00,WeatherDisplay:10.37,2013-03-28 22:40:00,
2013-03-28 16:45:00,54.5,33.6,30.04,NE,45,4.7,5.8,45,0.00,CLR,,0.00,WeatherDisplay:10.37,2013-03-28 22:45:00,
2013-03-28 16:50:00,53.6,33.3,30.04,ENE,68,3.5,5.3,46,0.00,CLR,,0.00,WeatherDisplay:10.37,2013-03-28 22:50:00,
2013-03-28 16:55:00,53.8,32.9,30.04,SE,135,2.3,4.6,45,0.00,CLR,,0.00,WeatherDisplay:10.37,2013-03-28 22:55:00,
2013-03-28 17:00:00,54.1,33.2,30.04,NE,45,4.5,6.3,45,0.00,CLR,,0.00,WeatherDisplay:10.37,2013-03-28 23:00:00,
2013-03-28 17:05:00,53.8,33.5,30.04,ENE,68,4.9,5.8,46,0.00,CLR,,0.00,WeatherDisplay:10.37,2013-03-28 23:05:00,
2013-03-28 17:10:00,54.0,34.2,30.04,East,90,3.5,4.2,47,0.00,CLR,,0.00,WeatherDisplay:10.37,2013-03-28 23:10:00,
2013-03-28 17:15:00,53.8,34.6,30.04,East,90,3.6,6.3,48,0.00,CLR,,0.00,WeatherDisplay:10.37,2013-03-28 23:15:00,
2013-03-28 17:20:00,54.0,34.2,30.04,ESE,112,5.2,8.1,47,0.00,CLR,,0.00,WeatherDisplay:10.37,2013-03-28 23:20:00,
2013-03-28 17:25:00,53.4,34.7,30.04,ENE,68,6.3,6.9,49,0.00,CLR,,0.00,WeatherDisplay:10.37,2013-03-28 23:25:00,
2013-03-28 17:30:00,53.4,35.2,30.04,NE,45,5.4,6.9,50,0.00,CLR,,0.00,WeatherDisplay:10.37,2013-03-28 23:30:00,
2013-03-28 17:35:00,53.4,35.2,30.04,NE,45,4.1,6.3,50,0.00,CLR,,0.00,WeatherDisplay:10.37,2013-03-28 23:35:00,
2013-03-28 17:40:00,54.3,35.5,30.04,ESE,112,1.9,3.5,49,0.00,CLR,,0.00,WeatherDisplay:10.37,2013-03-28 23:40:00,
2013-03-28 17:45:00,53.8,35.1,30.04,ENE,68,6.6,9.2,49,0.00,CLR,,0.00,WeatherDisplay:10.37,2013-03-28 23:45:00,
2013-03-28 17:50:00,52.9,34.8,30.04,NE,45,4.4,5.8,50,0.00,CLR,,0.00,WeatherDisplay:10.37,2013-03-28 23:50:00,
2013-03-28 17:55:00,52.3,34.2,30.04,NNE,22,6.6,8.1,50,0.00,CLR,,0.00,WeatherDisplay:10.37,2013-03-28 23:55:00,
2013-03-28 18:00:00,52.0,34.4,30.04,NE,45,5.9,10.4,51,0.00,CLR,,0.00,WeatherDisplay:10.37,2013-03-29 00:00:00,
2013-03-28 18:05:00,51.6,34.0,30.04,NNE,22,7.6,8.1,51,0.00,CLR,,0.00,WeatherDisplay:10.37,2013-03-29 00:05:00,
2013-03-28 18:10:00,51.6,34.0,30.04,NNE,22,6.1,8.1,51,0.00,CLR,,0.00,WeatherDisplay:10.37,2013-03-29 00:10:00,
2013-03-28 18:15:00,51.1,33.6,30.04,NNE,22,3.1,3.5,51,0.00,CLR,,0.00,WeatherDisplay:10.37,2013-03-29 00:15:00,
2013-03-28 18:20:00,50.5,34.9,30.04,NE,45,7.2,7.2,55,0.00,CLR,,0.00,WeatherDisplay:10.37,2013-03-29 00:20:00,
2013-03-28 18:25:00,49.8,36.0,30.04,ENE,68,6.0,8.3,59,0.00,CLR,,0.00,WeatherDisplay:10.37,2013-03-29 00:25:00,
2013-03-28 18:30:00,49.3,36.8,30.05,NNE,22,4.8,6.9,62,0.00,CLR,,0.00,WeatherDisplay:10.37,2013-03-29 00:30:00,
2013-03-28 18:35:00,48.7,36.3,30.05,NE,45,3.6,5.8,62,0.00,CLR,,0.00,WeatherDisplay:10.37,2013-03-29 00:35:00,
2013-03-28 18:40:00,48.2,36.6,30.05,ENE,68,5.0,6.9,64,0.00,CLR,,0.00,WeatherDisplay:10.37,2013-03-29 00:40:00,
2013-03-28 18:45:00,47.7,36.5,30.05,NE,45,4.8,7.3,65,0.00,CLR,,0.00,WeatherDisplay:10.37,2013-03-29 00:45:00,
2013-03-28 18:50:00,46.9,36.1,30.05,NE,45,5.6,9.2,66,0.00,CLR,,0.00,WeatherDisplay:10.37,2013-03-29 00:50:00,
2013-03-28 18:55:00,46.6,36.2,30.05,East,90,3.1,8.1,67,0.00,CLR,,0.00,WeatherDisplay:10.37,2013-03-29 00:55:00,
2013-03-28 19:00:00,46.0,36.0,30.05,ENE,68,6.1,6.9,68,0.00,CLR,,0.00,WeatherDisplay:10.37,2013-03-29 01:00:00,
2013-03-28 19:05:00,45.5,36.3,30.05,ENE,68,4.2,4.6,70,0.00,CLR,,0.00,WeatherDisplay:10.37,2013-03-29 01:05:00,
2013-03-28 19:10:00,45.0,36.2,30.05,ESE,112,2.8,4.6,71,0.00,CLR,,0.00,WeatherDisplay:10.37,2013-03-29 01:10:00,
2013-03-28 19:15:00,44.2,35.7,30.06,NE,45,5.3,6.9,72,0.00,CLR,,0.00,WeatherDisplay:10.37,2013-03-29 01:15:00,
2013-03-28 19:20:00,43.9,35.8,30.06,NNE,22,3.6,4.7,73,0.00,CLR,,0.00,WeatherDisplay:10.37,2013-03-29 01:20:00,
2013-03-28 19:25:00,43.2,35.1,30.06,ENE,68,3.0,3.5,73,0.00,CLR,,0.00,WeatherDisplay:10.37,2013-03-29 01:25:00,
2013-03-28 19:30:00,42.8,35.1,30.06,ESE,112,3.2,4.7,74,0.00,CLR,,0.00,WeatherDisplay:10.37,2013-03-29 01:30:00,
2013-03-28 19:35:00,42.3,35.3,30.06,NE,45,3.2,4.6,76,0.00,CLR,,0.00,WeatherDisplay:10.37,2013-03-29 01:35:00,
2013-03-28 19:40:00,41.7,34.7,30.06,SE,135,2.8,3.5,76,0.00,CLR,,0.00,WeatherDisplay:10.37,2013-03-29 01:40:00,
2013-03-28 19:45:00,41.2,34.9,30.06,ESE,112,3.5,4.6,78,0.00,CLR,,0.00,WeatherDisplay:10.37,2013-03-29 01:45:00,
2013-03-28 19:50:00,40.6,34.3,30.06,SE,135,2.4,3.5,78,0.00,CLR,,0.00,WeatherDisplay:10.37,2013-03-29 01:50:00,
2013-03-28 19:55:00,40.1,34.4,30.06,SSE,158,2.4,3.5,80,0.00,CLR,,0.00,WeatherDisplay:10.37,2013-03-29 01:55:00,
2013-03-28 20:00:00,39.6,33.9,30.06,East,90,2.4,2.7,80,0.00,CLR,,0.00,WeatherDisplay:10.37,2013-03-29 02:00:00,
2013-03-28 20:05:00,39.2,34.2,30.07,East,90,4.7,4.7,82,0.00,CLR,,0.00,WeatherDisplay:10.37,2013-03-29 02:05:00,
2013-03-28 20:10:00,39.0,34.0,30.07,SE,135,3.7,3.7,82,0.00,CLR,,0.00,WeatherDisplay:10.37,2013-03-29 02:10:00,
2013-03-28 20:15:00,38.5,33.8,30.07,ESE,112,4.6,5.8,83,0.00,CLR,,0.00,WeatherDisplay:10.37,2013-03-29 02:15:00,
2013-03-28 20:20:00,38.3,33.6,30.07,ESE,112,4.4,4.6,83,0.00,CLR,,0.00,WeatherDisplay:10.37,2013-03-29 02:20:00,
2013-03-28 20:25:00,37.9,33.5,30.07,ESE,112,3.9,5.8,84,0.00,CLR,,0.00,WeatherDisplay:10.37,2013-03-29 02:25:00,
2013-03-28 20:30:00,37.9,33.5,30.08,SE,135,3.2,3.5,84,0.00,CLR,,0.00,WeatherDisplay:10.37,2013-03-29 02:30:00,
2013-03-28 20:35:00,37.9,33.5,30.08,SE,135,3.2,3.5,84,0.00,CLR,,0.00,WeatherDisplay:10.37,2013-03-29 02:35:00,
2013-03-28 20:40:00,37.9,33.5,30.08,SE,135,3.2,3.5,84,0.00,CLR,,0.00,WeatherDisplay:10.37,2013-03-29 02:40:00,
2013-03-28 20:45:00,37.9,33.5,30.08,SE,135,3.2,3.5,84,0.00,CLR,,0.00,WeatherDisplay:10.37,2013-03-29 02:45:00,
2013-03-28 20:50:00,37.9,33.5,30.08,SE,135,3.2,3.5,84,0.00,CLR,,0.00,WeatherDisplay:10.37,2013-03-29 02:50:00,
2013-03-28 20:55:00,37.9,33.5,30.08,SE,135,3.2,3.5,84,0.00,CLR,,0.00,WeatherDisplay:10.37,2013-03-29 02:55:00,
2013-03-28 21:00:00,37.9,33.5,30.08,SE,135,3.2,3.5,84,0.00,CLR,,0.00,WeatherDisplay:10.37,2013-03-29 03:00:00,
2013-03-28 21:05:00,37.9,33.5,30.08,SE,135,3.2,3.5,84,0.00,CLR,,0.00,WeatherDisplay:10.37,2013-03-29 03:05:00,
2013-03-28 21:10:00,37.9,33.5,30.08,SE,135,3.2,3.5,84,0.00,CLR,,0.00,WeatherDisplay:10.37,2013-03-29 03:10:00,
2013-03-28 21:15:00,37.9,33.5,30.08,SE,135,3.2,3.5,84,0.00,CLR,,0.00,WeatherDisplay:10.37,2013-03-29 03:15:00,
2013-03-28 21:20:00,37.9,33.5,30.08,SE,135,3.2,3.5,84,0.00,CLR,,0.00,WeatherDisplay:10.37,2013-03-29 03:20:00,
2013-03-28 21:25:00,37.9,33.5,30.08,SE,135,3.2,3.5,84,0.00,CLR,,0.00,WeatherDisplay:10.37,2013-03-29 03:25:00,
2013-03-28 21:30:00,37.9,33.5,30.08,SE,135,3.2,3.5,84,0.00,CLR,,0.00,WeatherDisplay:10.37,2013-03-29 03:30:00,
2013-03-28 21:35:00,37.9,33.5,30.08,SE,135,3.2,3.5,84,0.00,CLR,,0.00,WeatherDisplay:10.37,2013-03-29 03:35:00,
2013-03-28 21:40:00,37.9,33.5,30.08,SE,135,3.2,3.5,84,0.00,CLR,,0.00,WeatherDisplay:10.37,2013-03-29 03:40:00,
2013-03-28 21:45:00,37.9,33.5,30.08,SE,135,3.2,3.5,84,0.00,CLR,,0.00,WeatherDisplay:10.37,2013-03-29 03:45:00,
2013-03-28 21:50:00,37.9,33.5,30.08,SE,135,3.2,3.5,84,0.00,CLR,,0.00,WeatherDisplay:10.37,2013-03-29 03:50:00,
2013-03-28 21:55:00,37.9,33.5,30.08,SE,135,3.2,3.5,84,0.00,CLR,,0.00,WeatherDisplay:10.37,2013-03-29 03:55:00,
2013-03-28 22:00:00,37.9,33.5,30.08,SE,135,3.2,3.5,84,0.00,CLR,,0.00,WeatherDisplay:10.37,2013-03-29 04:00:00,
2013-03-28 22:05:00,37.9,33.5,30.08,SE,135,3.2,3.5,84,0.00,CLR,,0.00,WeatherDisplay:10.37,2013-03-29 04:05:00,
2013-03-28 22:10:00,37.9,33.5,30.08,SE,135,3.2,3.5,84,0.00,CLR,,0.00,WeatherDisplay:10.37,2013-03-29 04:10:00,
2013-03-28 22:15:00,37.9,33.5,30.08,SE,135,3.2,3.5,84,0.00,CLR,,0.00,WeatherDisplay:10.37,2013-03-29 04:15:00,
2013-03-28 22:20:00,37.9,33.5,30.08,SE,135,3.2,3.5,84,0.00,CLR,,0.00,WeatherDisplay:10.37,2013-03-29 04:20:00,
2013-03-28 22:25:00,37.9,33.5,30.08,SE,135,3.2,3.5,84,0.00,CLR,,0.00,WeatherDisplay:10.37,2013-03-29 04:25:00,
2013-03-28 22:30:00,37.9,33.5,30.08,SE,135,3.2,3.5,84,0.00,CLR,,0.00,WeatherDisplay:10.37,2013-03-29 04:30:00,
2013-03-28 22:35:00,37.9,33.5,30.08,SE,135,3.2,3.5,84,0.00,CLR,,0.00,WeatherDisplay:10.37,2013-03-29 04:35:00,
2013-03-28 22:40:00,37.9,33.5,30.08,SE,135,3.2,3.5,84,0.00,CLR,,0.00,WeatherDisplay:10.37,2013-03-29 04:40:00,
2013-03-28 22:45:00,37.9,33.5,30.08,SE,135,3.2,3.5,84,0.00,CLR,,0.00,WeatherDisplay:10.37,2013-03-29 04:45:00,
2013-03-28 22:50:00,37.9,33.5,30.08,SE,135,3.2,3.5,84,0.00,CLR,,0.00,WeatherDisplay:10.37,2013-03-29 04:50:00,
2013-03-28 22:55:00,37.9,33.5,30.08,SE,135,3.2,3.5,84,0.00,CLR,,0.00,WeatherDisplay:10.37,2013-03-29 04:55:00,
2013-03-28 23:00:00,37.9,33.5,30.08,SE,135,3.2,3.5,84,0.00,CLR,,0.00,WeatherDisplay:10.37,2013-03-29 05:00:00,
2013-03-28 23:05:00,37.9,33.5,30.08,SE,135,3.2,3.5,84,0.00,CLR,,0.00,WeatherDisplay:10.37,2013-03-29 05:05:00,
2013-03-28 23:10:00,37.9,33.5,30.08,SE,135,3.2,3.5,84,0.00,CLR,,0.00,WeatherDisplay:10.37,2013-03-29 05:10:00,
2013-03-28 23:15:00,37.9,33.5,30.08,SE,135,3.2,3.5,84,0.00,CLR,,0.00,WeatherDisplay:10.37,2013-03-29 05:15:00,
2013-03-28 23:20:00,37.9,33.5,30.08,SE,135,3.2,3.5,84,0.00,CLR,,0.00,WeatherDisplay:10.37,2013-03-29 05:20:00,
2013-03-28 23:25:00,37.9,33.5,30.08,SE,135,3.2,3.5,84,0.00,CLR,,0.00,WeatherDisplay:10.37,2013-03-29 05:25:00,
2013-03-28 23:30:00,37.9,33.5,30.08,SE,135,3.2,3.5,84,0.00,CLR,,0.00,WeatherDisplay:10.37,2013-03-29 05:30:00,
2013-03-28 23:35:00,37.9,33.5,30.08,SE,135,3.2,3.5,84,0.00,CLR,,0.00,WeatherDisplay:10.37,2013-03-29 05:35:00,
2013-03-28 23:40:00,37.9,33.5,30.08,SE,135,3.2,3.5,84,0.00,CLR,,0.00,WeatherDisplay:10.37,2013-03-29 05:40:00,
2013-03-28 23:45:00,37.9,33.5,30.08,SE,135,3.2,3.5,84,0.00,CLR,,0.00,WeatherDisplay:10.37,2013-03-29 05:45:00,
2013-03-28 23:50:00,37.9,33.5,30.08,SE,135,3.2,3.5,84,0.00,CLR,,0.00,WeatherDisplay:10.37,2013-03-29 05:50:00,
2013-03-28 23:55:00,37.9,33.5,30.08,SE,135,3.2,3.5,84,0.00,CLR,,0.00,WeatherDisplay:10.37,2013-03-29 05:55:00,